Location: Newark
(45.9456°N, 15.4064°E)
Time: 20:52:55
(UTC+00:00)

Transit 2A Rocket - Pass Details

Date: 26 January 2020
Orbit: 591 x 912 km, 66.7° (Epoch: 22 February)

Event Time Altitude Azimuth Distance (km) Brightness Sun altitude
Exits shadow 05:12:14 20° 268° (W) 1,407 5.8 -13.2°
Maximum altitude 05:14:22 30° 314° (NW) 1,090 5.4 -12.8°
Drops below altitude 10° 05:18:13 10° 16° (NNE) 1,966 7.2 -12.2°
Sets 05:20:46 0° 28° (NNE) 2,906 8.2 -11.7°
